sat.trackr.live / text

‹ back to catalog

SXM-7

NORAD 47240 · 2020-096A

PAYLOAD ACTIVE UNKNOWN

§ Identity

Operator
Country
US
Launch date
2020-12-13
Launch site
AFETR
Launch vehicle
Mass (kg)
RCS (m²)

Purposes: comms

External: N2YO · Heavens-Above · Gunter

§ Orbital elements

Epoch: 2026-09-18T23:38:38.865120Z

Period
1,436.07 min
Inclination
0.0200°
Eccentricity
0.0004517
Mean motion
1.00273486 rev/d
Perigee alt
35,767.1 km
Apogee alt
35,805.2 km
Semi-major
42,164.3 km
B*
0.0000e+0
RAAN
125.6505°
Arg perigee
358.2157°
Mean anomaly
143.5347°
Rev number
838

§ Raw data

SXM-71 47240U 20096A   26261.98517205 -.00000210  00000+0  00000+0 0  99902 47240   0.0200 125.6505 0004517 358.2157 143.5347  1.00273486  8380

JSON: /api/v1/satellites/47240 · /tle

For live sub-satellite position, see the globe view (requires WebGL).

§ Visibility from observer

Set your observer location to see the next 7 days of passes ≥ 10°. The values pass through the URL so the page stays shareable.

No JS? Fill the form by hand. The geolocation button needs JavaScript.